Regional Weather Roundup
Issued by NWS

Home | Current Version | Previous Version | Graphics & Text | Print | Product List | Glossary On
Versions: 1 2 3 4 5 6 7 8 9 10 11 12 13 14 15 16 17 18 19 20 21 22 23 24 25 26 27 28 29 30 31 32 33 34 35 36 37 38 39 40 41 42 43 44 45 46 47 48 49 50
000
ASUS43 KLSX 220659
RWRMO

WEATHER SUMMARY FOR MISSOURI
NATIONAL WEATHER SERVICE SPRINGFIELD MO
200 AM CDT FRI AUG 22 2014

NOTE: "FAIR" INDICATES FEW OR NO CLOUDS BELOW 12,000 FEET WITH NO
       SIGNIFICANT WEATHER AND/OR OBSTRUCTIONS TO VISIBILITY.
       CURRENT SKY AND/OR WEATHER CONDITIONS ARE NOT AVAILABLE FOR
       CHILLICOTHE AND FARMINGTON.

MOZ001>031-035>038-043-044-053-054-220800-
...NORTHERN AND WESTERN MISSOURI...

CITY           SKY/WX    TMP DP  RH WIND       PRES   REMARKS
KANSAS CTY INT PTCLDY    82  71  69 S16       29.90F
KANSAS C DTWN  CLEAR     84  71  65 S14       29.89F
LEE`S SUMMIT   CLEAR     81  71  71 S9        29.93F
ST JOSEPH      PTCLDY    81  73  76 S9        29.88F
KIRKSVILLE     CLEAR     81  72  74 SW9       29.92S

$$
MOZ066>068-077>081-088>096-101>105-220800-
...SOUTHWEST MISSOURI...

CITY           SKY/WX    TMP DP  RH WIND       PRES   REMARKS
SPRINGFIELD    CLEAR     77  70  79 S9        30.02S
JOPLIN         CLEAR     80  71  74 S12       29.99S

$$
MOZ032>034-039>042-045>050-055>058-069>072-220800-
...CENTRAL MISSOURI...

CITY           SKY/WX    TMP DP  RH WIND       PRES   REMARKS
COLUMBIA       CLEAR     77  70  79 SW10      29.98R
JEFFERSON CITY CLEAR     80  69  69 S6        29.97R
ROLLA          CLEAR     76  67  73 S7        30.01R
SEDALIA        CLEAR     80  70  71 S10       29.97F
OSAGE BEACH    CLEAR     79  66  65 S7        30.00S

$$
MOZ051-052-059>065-220800-
...EAST CENTRAL MISSOURI...

CITY           SKY/WX    TMP DP  RH WIND       PRES   REMARKS
ST LOUIS INTL  PTCLDY    85  70  60 SW15      29.96F
SPIRIT OF STL  CLEAR     80  69  69 SW9       29.95S
ST CHARLES     CLEAR     79  73  82 CALM      29.93F

$$
MOZ072>076-082>087-097>100-106>115-220800-
...SOUTH CENTRAL AND SOUTHEAST MISSOURI...

CITY           SKY/WX    TMP DP  RH WIND       PRES   REMARKS
CAPE GIRARDEAU CLEAR     78  72  81 S8        30.00F
FARMINGTON     CLEAR     77  70  78 S7        30.04F
POPLAR BLUFF   CLEAR     74  69  85 CALM      30.01F
WEST PLAINS    CLEAR     74  67  78 SW3       30.06F

$$


USA.gov is the U.S. government's official web portal to all federal, state and local government web resources and services.